Volver al catálogo

STARLINK-33581

ActivoComunicacionesVLEO
NORAD 62784·PAYLOAD·🇺🇸 United States

Lanzado Jan 21, 2025 desde Vandenberg Space Force Base

Loading…

Próximos Pases (próximas 24 horas)

TLE

ActualizadoSource: CelesTrak SupGP

Época: Sep 15, 2026, 02:46 UTC

1 62784C 25015AC  26258.11576389 -.00015369  00000+0 -49428-3 0  2586
2 62784  53.1587 161.2894 0001362  87.2259 194.9607 15.31705333    12

Sigue STARLINK-33581 en tiempo real con AllMySat

Download on the App Store